RH
88 94 95 94 93 98 96 94 87 76 65 56 49 42 41 43 43 43 24 16 17 14 11 10 7 4 3 25 6 5 21 26 30 27 25 24 16 23 25 22 19 22 20 19 19 19 21
98 97 92 82 81 83 90 92 94 94 93 90 78 64 50 44 37 44 26 19 15 12 13 17 12 7 16 65 6 6 8 12 19 19 28 24 14 16 21 21 21 18 20 23 20 18 22
97 99 90 92 96 91 83 81 82 84 86 95 94 94 80 55 56 49 37 28 18 12 10 17 20 14 34 4 3 3 5 10 30 18 25 25 18 19 21 23 21 22 27 26 23 21 26
97 99 99 93 88 90 90 85 86 79 58 62 72 85 88 90 79 67 46 21 32 15 12 10 22 24 66 2 2 3 4 6 27 23 31 28 29 26 24 23 24 25 26 30 20 25 26
98 98 96 90 92 90 88 86 88 86 72 62 47 55 80 89 84 71 45 23 14 15 12 13 18 30 38 8 9 15 16 23 7 35 33 30 37 32 27 31 34 35 31 32 28 24 34
98 99 98 100 100 81 60 84 85 83 85 84 77 62 48 72 81 72 47 23 19 28 40 24 66 58 12 7 11 39 34 32 32 16 33 36 39 41 42 39 44 37 40 38 35 26 30
99 100 98 100 100 89 64 66 82 80 83 88 85 86 83 46 38 56 56 33 38 62 74 49 56 26 16 33 35 34 37 38 32 30 44 40 48 50 45 37 30 32 34 36 34 28 27
95 99 99 99 99 99 90 92 82 71 78 74 80 85 87 85 69 34 64 71 93 94 97 64 43 63 21 36 65 12 20 37 33 40 40 39 48 36 35 35 33 33 35 38 34 28 32
89 96 97 99 100 100 93 92 86 75 72 76 82 83 78 81 80 52 45 77 90 82 98 77 43 34 32 30 52 25 25 34 36 42 43 42 37 32 31 36 36 39 36 38 36 33 32
94 92 95 97 100 88 82 87 81 77 81 82 82 76 82 83 80 62 75 89 98 87 97 56 68 38 27 26 58 16 22 18 35 39 40 40 29 33 34 34 32 38 34 33 35 38 48
90 95 94 95 99 91 82 80 78 75 76 79 88 88 88 85 82 61 89 91 70 99 24 16 42 26 33 27 22 32 19 26 32 36 37 44 41 37 41 36 31 31 34 37 36 43 41
89 87 92 98 99 96 85 81 78 80 76 77 85 90 91 92 90 82 72 27 68 88 59 24 31 41 45 37 30 36 41 29 25 31 34 34 33 35 31 29 31 31 34 36 43 50 64
91 88 91 97 98 97 75 75 79 76 77 80 88 94 97 93 93 82 66 72 97 94 36 23 32 40 40 39 34 31 38 40 32 35 41 34 35 30 29 38 36 34 42 59 63 66 65
86 91 93 98 98 98 86 64 76 75 74 85 88 94 98 95 90 91 83 93 94 54 53 34 30 30 38 30 29 28 36 40 32 33 31 40 44 34 33 33 38 44 46 68 60 69 52
87 93 96 99 98 98 85 70 76 84 70 82 88 98 99 99 94 99 85 98 69 61 49 54 37 32 39 35 42 26 34 34 26 34 35 47 42 26 30 31 28 40 50 38 47 61 74
92 92 94 97 98 97 81 76 66 79 92 90 99 100 98 99 99 100 92 77 68 54 57 58 56 48 53 46 46 46 41 41 34 29 33 38 46 35 29 28 29 34 37 49 63 61 69
94 85 92 91 91 88 83 73 72 81 91 99 100 99 98 99 100 100 92 79 59 51 54 64 66 62 58 54 45 44 46 47 57 55 33 34 42 42 34 38 39 39 40 40 49 63 60
85 87 88 86 83 90 82 62 76 82 88 100 100 98 99 98 99 97 90 69 53 55 53 55 57 60 57 51 46 49 50 54 50 55 56 42 47 50 35 31 30 32 38 40 53 52 74
88 80 90 85 80 84 81 59 75 78 88 99 100 99 100 100 97 93 70 65 63 61 56 58 58 64 56 48 43 42 49 43 38 57 71 67 72 69 54 38 34 37 36 37 48 54 48
81 81 84 80 79 86 81 64 80 80 77 99 100 99 100 100 97 73 78 78 69 57 66 64 67 59 60 60 46 53 53 44 36 36 58 50 68 70 83 71 67 62 44 35 38 56 52
70 66 64 63 68 80 77 67 77 84 77 99 99 99 95 98 97 80 68 66 71 76 60 59 65 67 66 74 73 57 47 47 44 44 56 61 82 85 80 72 65 66 60 46 40 38 45
78 76 78 80 80 70 67 66 71 83 90 99 99 99 100 94 77 86 79 76 68 62 67 68 69 64 64 69 65 62 52 47 47 57 74 78 75 90 87 73 66 67 60 47 42 38 38
98 97 91 90 83 78 79 80 83 93 98 100 100 99 100 97 92 97 83 72 69 58 57 54 62 66 68 62 56 53 49 50 57 60 61 79 88 95 84 79 66 71 58 48 46 39 39
96 98 98 98 97 94 92 94 97 98 98 100 98 98 99 98 94 91 71 67 65 60 66 61 55 62 58 55 52 56 62 62 64 65 65 80 86 95 96 84 92 49 55 38 53 47 38
95 92 94 98 98 98 99 100 98 97 98 100 100 99 94 97 92 82 77 73 63 61 64 60 56 56 60 56 74 74 77 83 81 80 71 78 91 99 97 93 67 47 33 44 49 48 35
97 94 90 88 98 98 99 98 99 99 98 100 100 100 100 96 95 77 80 89 88 77 72 65 62 58 56 76 98 96 85 71 74 88 75 80 80 89 100 100 91 44 36 42 39 49 45
100 99 94 89 91 97 99 99 99 99 99 99 100 99 100 98 88 84 83 94 83 74 78 69 67 72 66 99 97 97 90 58 74 84 89 98 99 94 98 96 82 63 64 53 78 55 78
99 100 98 92 94 96 91 97 99 99 99 99 100 99 98 100 99 96 81 86 76 66 80 71 79 82 91 94 90 88 93 75 66 73 88 90 95 97 94 97 94 54 70 72 73 53 50
94 93 100 99 92 99 94 90 92 99 99 99 99 99 100 99 100 99 95 74 66 55 56 66 62 73 77 88 91 84 91 94 79 88 73 84 77 88 85 81 59 50 46 44 39 36 31
Wind_Speed
15 15 15 15 15 15 16 16 16 18 17 17 17 19 22 25 23 24 25 26 26 25 24 23 22 22 23 11 17 13 8 9 10 11 11 11 12 8 5 4 5 4 5 5 9 20 19
13 13 14 16 18 17 17 16 17 18 18 19 20 19 18 21 25 25 26 27 28 27 25 22 22 20 16 8 9 9 9 21 21 14 12 13 7 13 5 5 6 6 8 12 14 23 12
14 15 15 15 14 15 16 17 19 21 21 20 19 18 19 19 18 22 25 26 27 28 25 22 21 19 16 30 17 27 14 14 13 18 17 13 13 6 6 2 5 4 5 6 5 7 5
14 16 16 16 16 16 16 18 17 19 20 21 22 21 19 21 23 24 25 24 26 27 22 22 20 15 13 26 24 31 19 21 15 18 17 12 8 7 6 5 2 2 2 3 3 2 3
17 18 18 17 17 17 15 17 17 19 19 19 19 20 20 19 21 24 27 27 21 24 22 18 15 11 16 16 16 11 8 9 18 17 16 9 3 7 5 4 3 3 4 5 8 4 3
19 19 19 17 18 19 16 17 19 18 19 19 18 19 20 20 20 22 26 27 16 14 8 5 7 6 20 19 8 4 1 4 7 18 14 9 8 3 2 4 7 6 4 5 5 3 2
21 21 20 20 18 19 18 18 18 18 17 21 18 19 20 20 23 22 26 25 4 2 4 10 7 10 11 7 8 6 3 6 10 12 8 8 4 12 10 6 5 5 4 3 5 5 1
24 22 20 20 20 19 20 18 19 18 18 19 20 19 19 20 21 21 18 8 6 10 15 24 31 35 38 20 11 22 11 6 8 7 6 3 12 9 9 8 7 4 5 6 9 9 7
24 24 22 22 21 20 20 19 19 19 19 18 18 18 18 19 21 19 13 4 2 19 7 16 27 26 33 26 23 38 18 5 6 6 10 12 4 13 10 6 10 6 12 4 8 6 5
24 23 25 23 24 24 18 19 21 18 18 18 17 17 16 16 16 9 3 5 5 16 4 8 6 9 11 14 8 36 23 23 6 13 7 9 15 1 6 12 8 9 9 8 6 2 4
25 25 24 24 25 21 19 21 20 21 21 18 17 16 14 13 11 8 2 5 11 2 5 1 4 3 8 17 3 8 35 22 12 8 7 7 6 17 5 5 9 9 8 10 6 4 1
28 26 25 26 24 24 23 22 20 20 19 18 17 15 14 17 19 15 14 13 7 2 8 6 3 3 6 8 4 6 13 10 12 5 2 7 4 8 14 11 11 4 2 3 1 3 5
29 27 26 27 26 27 25 23 22 20 20 20 18 16 16 18 18 10 6 4 3 6 5 5 3 1 5 5 5 4 5 6 6 11 12 3 6 3 4 5 5 4 6 2 2 2 6
29 29 29 29 28 26 24 23 22 20 20 20 18 17 18 22 16 11 5 2 11 4 5 6 4 9 5 6 5 6 6 5 7 1 4 11 6 12 7 10 6 8 8 5 6 3 3
31 32 31 29 27 27 24 22 23 22 22 21 19 20 22 25 18 12 4 7 4 5 4 7 6 3 5 4 3 0 4 7 6 7 6 7 6 3 7 7 12 5 5 7 0 2 0
31 32 31 30 29 28 25 24 24 24 22 19 21 23 27 25 20 14 3 11 6 2 3 5 5 5 6 7 6 5 1 4 2 8 3 4 2 4 3 4 1 7 7 3 1 4 5
34 33 33 33 32 30 27 26 24 24 22 18 21 12 15 25 20 12 7 6 9 23 10 5 4 5 4 4 5 5 5 4 8 7 6 3 2 5 4 4 7 3 5 2 3 4 5
36 37 36 36 35 31 30 28 24 24 21 21 21 6 18 28 9 5 9 5 5 7 1 3 2 4 3 3 5 6 6 7 17 7 4 2 2 6 14 6 2 2 6 9 6 5 4
36 35 37 37 36 33 32 29 27 25 24 23 10 8 28 35 9 10 4 7 5 3 2 1 2 3 3 3 2 3 4 3 20 12 4 7 3 3 6 4 3 4 5 5 2 3 17
37 38 39 40 37 36 34 31 30 27 28 27 6 5 8 25 12 17 12 9 7 14 3 1 2 3 3 3 2 3 6 5 15 11 12 4 2 2 2 2 4 6 7 11 12 7 2
39 41 42 42 39 38 36 35 35 31 30 30 12 5 9 7 13 11 15 8 13 5 12 9 3 5 2 3 4 3 4 5 7 7 5 2 4 1 2 7 10 11 13 13 11 12 12
44 43 42 41 40 39 38 39 37 36 32 35 10 6 9 2 20 19 15 15 13 14 7 6 11 4 6 9 7 4 4 2 4 6 6 2 4 4 3 4 9 17 12 11 11 6 11
42 43 45 47 46 44 43 43 41 37 35 29 27 19 7 9 12 14 19 14 16 11 13 12 11 7 12 11 17 21 24 20 9 7 5 6 3 2 4 2 3 9 4 3 8 8 7
38 37 42 43 44 47 49 49 44 41 43 39 27 18 9 6 12 14 17 17 15 20 11 12 22 14 4 5 15 14 18 18 14 13 12 7 2 1 1 2 3 7 5 6 5 12 11
38 37 34 36 38 40 42 44 44 42 45 46 34 28 18 8 10 14 16 21 24 19 18 16 17 23 13 18 3 4 2 3 7 10 12 11 4 1 2 2 6 4 6 4 5 18 8
40 38 37 34 31 36 36 39 40 42 45 45 42 31 20 6 12 18 17 20 14 15 13 22 23 19 15 2 2 3 3 4 3 3 8 6 5 4 3 3 6 4 3 9 1 13 7
32 37 37 35 33 29 34 35 36 39 42 45 35 42 14 8 14 26 15 13 13 13 4 4 12 11 14 2 2 3 3 3 3 4 3 4 3 12 3 2 8 7 5 5 4 7 14
24 28 33 36 33 32 29 28 32 37 40 43 38 33 32 6 8 18 22 18 17 22 7 10 5 6 3 7 3 4 3 5 5 4 6 5 5 3 4 3 8 6 1 3 5 9 15
20 19 24 32 36 35 34 32 28 32 38 42 17 34 38 17 5 13 23 25 36 38 28 24 13 8 12 3 3 3 2 0 5 3 3 3 6 5 8 7 4 2 1 6 7 6 10
Wind_Direction
271 273 279 284 289 297 305 309 310 307 310 308 303 301 299 301 303 308 309 309 310 309 306 308 306 307 316 298 262 252 235 190 186 202 210 208 196 180 188 192 166 197 260 240 266 299 296
302 306 297 281 279 280 283 287 291 296 300 303 307 312 306 303 302 301 302 305 304 304 305 307 301 300 307 282 279 272 245 233 241 237 232 211 225 218 202 203 176 213 252 286 295 290 272
297 295 297 297 301 303 298 293 291 291 293 296 302 306 313 312 319 310 304 298 302 298 303 300 294 293 279 263 283 288 264 255 242 227 226 220 221 202 188 226 232 245 287 308 257 271 237
289 290 288 292 293 293 295 297 302 299 295 291 292 296 303 311 317 316 318 303 296 298 296 288 285 280 261 288 277 267 263 255 241 214 208 214 219 240 219 262 348 275 59 2 262 125 337
286 283 284 282 288 286 292 297 299 300 304 302 297 289 295 303 309 315 312 312 299 290 286 277 267 258 267 273 273 284 248 263 235 214 205 212 216 211 172 134 359 350 238 224 317 219 107
286 289 287 293 290 290 282 281 285 295 307 310 310 304 290 293 305 317 317 318 313 295 296 209 209 267 251 255 259 289 354 223 214 204 208 210 185 164 140 137 217 193 225 249 242 232 356
284 283 287 289 291 293 290 282 283 286 291 298 305 306 309 304 294 309 325 346 334 316 281 234 215 230 255 258 266 220 245 334 174 182 170 182 153 216 191 184 175 153 178 231 257 238 356
281 283 287 288 288 290 289 283 281 279 285 289 295 300 307 312 308 297 324 360 47 353 299 278 254 249 246 252 300 259 275 198 178 191 138 123 217 201 182 192 186 177 223 246 295 289 175
278 283 284 283 285 284 285 278 278 279 279 282 287 292 297 304 303 301 306 326 346 347 267 280 245 239 243 234 233 256 230 197 203 168 188 207 219 179 174 171 199 206 219 195 226 353 267
276 277 280 279 278 281 279 278 278 281 281 283 286 285 285 298 301 307 314 197 299 337 295 273 226 252 204 198 236 237 228 211 210 196 181 224 233 98 162 208 176 230 184 218 239 97 246
276 278 275 273 276 277 270 272 276 282 277 279 282 276 274 278 275 284 289 237 313 319 326 175 181 311 176 166 312 232 214 204 199 190 161 219 188 207 187 223 160 237 164 202 217 192 278
275 274 274 274 274 273 265 264 271 277 276 275 274 268 263 258 261 280 285 282 303 260 248 315 159 142 155 221 285 9 169 199 206 169 190 204 182 171 213 218 181 121 151 217 110 144 246
273 272 270 271 271 271 269 261 263 265 268 269 265 259 251 257 264 284 285 300 229 223 328 313 25 171 272 196 214 156 162 197 163 191 213 191 225 193 179 153 188 136 103 278 334 211 232
270 267 268 270 271 273 270 259 263 262 269 265 261 255 244 249 251 251 270 206 226 176 269 324 325 309 197 171 243 159 116 188 277 215 163 206 250 183 188 204 171 190 161 167 207 213 260
266 267 269 270 267 270 268 259 258 256 254 259 258 249 243 238 232 226 197 223 213 185 300 327 323 353 348 9 342 76 140 186 218 208 183 184 241 242 197 173 176 192 168 196 52 109 38
267 268 267 267 267 267 263 256 256 256 254 250 246 251 241 234 219 202 174 235 233 30 34 339 26 25 14 350 30 18 65 341 303 214 208 195 221 216 221 114 281 173 163 121 347 207 232
265 263 263 264 264 265 262 252 251 254 251 243 239 242 226 223 203 187 219 232 243 270 324 348 354 334 351 19 350 352 357 40 359 326 196 169 116 274 119 171 173 156 228 189 170 155 212
264 263 265 266 265 262 259 250 247 248 248 244 237 230 183 195 187 195 217 188 269 280 31 284 283 233 271 328 1 344 35 20 337 328 31 328 196 225 250 260 200 231 204 200 221 246 228
269 259 263 266 263 259 256 248 242 243 238 242 234 191 187 188 210 208 195 209 220 258 197 238 287 23 356 13 351 345 348 6 20 18 12 346 359 19 341 333 22 233 180 205 156 144 236
267 264 265 265 258 256 253 244 240 239 242 237 235 181 186 198 226 203 194 216 198 211 266 117 302 357 59 34 39 305 337 311 322 328 325 88 300 119 231 309 285 284 303 232 222 237 184
270 267 265 262 258 253 249 243 241 242 238 233 212 228 185 198 210 197 195 195 200 198 215 186 246 193 128 315 354 249 237 304 329 258 208 213 207 36 303 295 311 275 275 264 241 245 232
266 264 263 260 256 251 247 241 242 241 237 233 199 197 187 283 200 200 196 207 197 202 174 210 243 153 196 232 202 273 281 306 254 317 330 291 228 147 217 28 353 315 299 278 261 253 258
269 264 260 256 252 249 246 243 245 237 231 227 220 221 203 189 182 189 206 200 205 190 224 227 206 236 256 250 246 249 255 258 250 290 320 290 174 163 247 182 352 313 149 263 290 255 234
270 269 262 256 250 247 245 245 237 233 225 220 210 199 216 212 194 204 194 201 201 206 204 217 227 232 207 296 302 278 248 244 241 250 222 261 188 170 230 250 202 236 237 275 272 276 282
268 265 264 256 249 245 241 233 237 228 221 219 215 205 207 226 194 193 193 197 206 203 216 231 230 230 255 272 292 292 315 297 240 216 230 226 136 220 192 220 303 288 250 226 120 294 293
267 262 257 252 248 241 238 232 227 222 219 218 215 206 205 207 212 182 187 185 193 207 220 233 243 247 263 59 165 244 239 234 271 287 196 191 172 185 154 233 234 226 360 358 322 279 4
280 258 251 245 241 239 229 222 221 217 216 213 214 214 205 192 192 181 184 181 175 173 187 178 225 238 221 177 217 217 237 237 268 183 173 161 183 218 188 266 278 244 246 136 165 285 326
294 263 244 238 234 228 226 221 217 216 210 208 212 213 197 147 160 193 184 165 174 178 170 162 118 202 140 188 203 196 210 231 200 199 175 168 161 191 181 209 268 210 131 139 213 342 343
285 284 248 234 227 225 217 214 216 206 204 199 183 190 199 204 159 185 198 203 208 205 193 167 186 166 177 149 194 174 200 146 171 224 183 240 187 188 190 212 240 245 279 206 214 282 301